Trenton, NJ

4:47 PM EST on December 07, 2019 (GMT -0500)
Trenton Mercer

Weather History for KTTN - October, 2019

Change the Weather History Date:

Monday, October 28, 2019

  Actual Average Record
Temperature  
Mean Temperature 58 °F 51 °F  
Max Temperature 66 °F 61 °F 82 °F (1919)
Min Temperature 50 °F 41 °F 28 °F (1976)
Degree Days  
Heating Degree Days 7 14  
Month to date heating degree days 219 288  
Since 1 July heating degree days 237 353  
Cooling Degree Days 0 0  
Month to date cooling degree days 26 7  
Year to date cooling degree days 1163 962  
Growing Degree Days 8 (Base 50)    
Moisture  
Dew Point 49 °F    
Average Humidity 74    
Maximum Humidity 89    
Minimum Humidity 58    
Precipitation  
Precipitation 0.00 in 0.12 in 1.98 in (1953)
Month to date precipitation 4.34 3.81  
Year to date precipitation 43.00 39.06  
Sea Level Pressure  
Sea Level Pressure 30.14 in    
Wind  
Wind Speed 5 mph ()    
Max Wind Speed 13 mph    
Max Gust Speed 19 mph    
Visibility 10.0 miles    
Events      
T = Trace of Precipitation, MM = Missing Value Source: Averaged Metar Reports

Daily Weather History Graph

Daily Weather History Graph

Search for Another Location

Airport or City:

Astronomy

Oct. 28, 2019 Rise Set
Actual Time 7:23 AM EDT 6:01 PM EDT
Civil Twilight 6:55 AM EDT 6:29 PM EDT
Nautical Twilight 6:24 AM EDT 7:01 PM EDT
Astronomical Twilight 5:52 AM EDT 7:32 PM EDT
Moon 7:42 AM EDT (10/28) 6:45 PM EDT (10/28)
Length of Visible Light 11h 33m
Length of Day
10h 37m
New Moon, 0% of the Moon is Illuminated
Oct 28
New Moon
Nov 4
First Quarter
Nov 12
Full
Nov 19
Last Quarter
Nov 26
New

Hourly Weather History & Observations

Time (EDT) Temp. Dew Point Humidity Pressure Visibility Wind Dir Wind Speed Gust Speed Precip Events Conditions
12:53 AM 57.9 °F 46.9 °F 67% 29.91 in 10.0 mi NW 6.9 mph - N/A   Clear
1:53 AM 55.9 °F 46.0 °F 69% 29.95 in 10.0 mi WSW 5.8 mph - N/A   Clear
2:53 AM 55.0 °F 46.9 °F 74% 29.96 in 10.0 mi NW 6.9 mph - N/A   Clear
3:53 AM 54.0 °F 46.0 °F 75% 29.99 in 10.0 mi NW 5.8 mph - N/A   Clear
4:53 AM 52.0 °F 46.0 °F 80% 30.01 in 10.0 mi Calm Calm - N/A   Clear
5:53 AM 52.0 °F 46.0 °F 80% 30.04 in 10.0 mi NNW 5.8 mph - N/A   Clear
6:53 AM 52.0 °F 46.0 °F 80% 30.07 in 10.0 mi NW 3.5 mph - N/A   Clear
7:53 AM 51.1 °F 46.0 °F 83% 30.09 in 10.0 mi NNW 5.8 mph - N/A   Clear
8:53 AM 57.0 °F 48.0 °F 72% 30.13 in 10.0 mi North 4.6 mph - N/A   Clear
9:53 AM 61.0 °F 48.9 °F 64% 30.15 in 10.0 mi NNE 9.2 mph - N/A   Scattered Clouds
10:53 AM 62.1 °F 48.0 °F 60% 30.16 in 10.0 mi NNE 9.2 mph - N/A   Clear
11:53 AM 64.9 °F 50.0 °F 58% 30.17 in 10.0 mi Variable 6.9 mph - N/A   Scattered Clouds
12:53 PM 64.9 °F 50.0 °F 58% 30.17 in 10.0 mi SE 8.1 mph - N/A   Mostly Cloudy
1:53 PM 63.0 °F 50.0 °F 63% 30.17 in 10.0 mi ESE 8.1 mph - N/A   Overcast
2:53 PM 62.1 °F 50.0 °F 65% 30.17 in 10.0 mi SE 11.5 mph - N/A   Overcast
3:53 PM 61.0 °F 50.0 °F 67% 30.17 in 10.0 mi ESE 8.1 mph - N/A   Overcast
4:53 PM 61.0 °F 50.0 °F 67% 30.19 in 10.0 mi ENE 5.8 mph - N/A   Overcast
5:53 PM 60.1 °F 50.0 °F 69% 30.20 in 10.0 mi Calm Calm - N/A   Overcast
6:53 PM 60.1 °F 50.0 °F 69% 30.21 in 10.0 mi East 5.8 mph - N/A   Overcast
7:53 PM 59.0 °F 50.0 °F 72% 30.21 in 10.0 mi East 6.9 mph - N/A   Overcast
8:53 PM 55.9 °F 51.1 °F 84% 30.23 in 10.0 mi SE 10.4 mph - N/A   Partly Cloudy
9:18 PM 55.0 °F 51.1 °F 86% 30.25 in 10.0 mi ESE 6.9 mph - N/A   Mostly Cloudy
9:53 PM 55.0 °F 52.0 °F 89% 30.25 in 10.0 mi SE 5.8 mph - N/A   Overcast
10:14 PM 55.0 °F 51.1 °F 86% 30.27 in 10.0 mi ESE 9.2 mph - N/A   Overcast
10:53 PM 55.0 °F 51.1 °F 86% 30.26 in 10.0 mi SE 5.8 mph - N/A   Overcast
11:27 PM 55.0 °F 51.1 °F 86% 30.27 in 10.0 mi Calm Calm - N/A   Overcast
11:53 PM 55.0 °F 51.1 °F 86% 30.26 in 10.0 mi ENE 3.5 mph - N/A   Overcast